DW6036 Weather Reports


time (UTC)temp
F
wind
direction
speed
knots
gust
knots
rain 1hr
in
rain 24hr
in
rain mn
in
humidity
%
barometer
mb
20260510054535 69 70 0.0 0.0 0.00 0.11 0.00 99 1011.1
20260510053036 70 74 0.0 0.0 0.00 0.11 0.00 99 1011.1
20260510051531 70 72 0.0 0.0 0.00 0.11 0.00 99 1011.2
20260510050031 70 78 0.0 0.0 0.00 0.11 0.00 99 1011.4
20260510044532 70 68 0.0 0.0 0.00 0.11 0.11 99 1011.7
20260510043028 70 67 0.0 0.0 0.00 0.11 0.11 99 1011.8
20260510041526 70 68 0.0 0.0 0.00 0.11 0.11 98 1012.0
20260510034526 71 44 0.9 4.3 0.00 0.11 0.11 98 1011.8
20260510033025 71 69 1.7 7.0 0.03 0.11 0.11 98 1011.7
20260510031525 71 76 2.6 5.2 0.06 0.11 0.11 98 1011.4
20260510030024 71 207 6.1 14.8 0.08 0.11 0.11 98 1011.0
20260510024522 71 117 10.4 15.6 0.09 0.11 0.11 98 1010.4
20260510023019 71 164 6.1 9.6 0.05 0.07 0.07 98 1011.5
20260510021519 71 120 7.0 13.0 0.03 0.05 0.05 98 1011.5
20260510020017 71 131 6.1 7.8 0.00 0.02 0.02 97 1011.7
20260510014516 71 149 0.0 3.5 0.00 0.02 0.02 97 1012.2
20260510013012 71 110 0.0 3.5 0.00 0.02 0.02 96 1011.4
20260510011520 72 114 0.9 2.6 0.00 0.02 0.02 96 1011.2
20260510010009 72 89 0.0 1.7 0.00 0.02 0.02 95 1011.0
20260510004511 73 56 0.9 5.2 0.00 0.02 0.02 94 1011.0
20260510003008 73 32 2.6 6.1 0.00 0.02 0.02 94 1011.0
20260510001511 73 53 0.9 5.2 0.00 0.02 0.02 94 1010.5
20260510000012 74 91 2.6 6.1 0.00 0.02 0.02 92 1010.0
20260509234505 75 94 1.7 8.7 0.00 0.02 0.02 93 1009.9
20260509233004 74 145 0.9 4.3 0.00 0.02 0.02 94 1009.8
20260509231504 74 67 0.0 5.2 0.00 0.02 0.02 94 1009.6
20260509230008 74 43 2.6 6.1 0.00 0.02 0.02 93 1009.9
20260509224505 74 134 1.7 5.2 0.00 0.03 0.02 93 1009.8
20260509223004 75 133 0.9 7.8 0.00 0.03 0.02 93 1009.9
20260509221501 76 62 1.7 8.7 0.00 0.03 0.02 92 1009.3
20260509220001 75 70 3.5 8.7 0.00 0.03 0.02 94 1009.2
20260509214501 74 30 2.6 8.7 0.00 0.03 0.02 94 1009.2
20260509213101 74 118 1.7 7.0 0.00 0.03 0.02 96 1009.1
20260509213001 73 108 1.7 7.0 0.00 0.03 0.02 96 1009.1
20260509211602 72 70 1.7 9.6 0.00 0.03 0.02 97 1008.8
20260509210108 72 60 3.5 10.4 0.00 0.03 0.02 96 1008.7
20260509204600 71 43 6.1 12.2 0.00 0.25 0.02 96 1008.9
20260509203058 71 34 5.2 10.4 0.00 0.25 0.02 96 1009.5
20260509201603 72 106 1.7 4.3 0.01 0.25 0.02 96 1010.1
20260509200106 71 58 0.0 5.2 0.02 0.25 0.02 96 1010.0
20260509194554 71 52 1.7 8.7 0.02 0.26 0.02 96 1009.9
20260509193056 71 86 1.7 7.0 0.02 0.26 0.02 95 1009.8
20260509191552 72 62 2.6 7.0 0.01 0.25 0.01 94 1010.2
20260509190051 73 54 4.3 8.7 0.00 0.24 0.00 94 1010.1
20260509184600 73 63 2.6 9.6 0.00 0.25 0.00 92 1009.8
20260509183050 73 31 3.5 11.3 0.00 0.25 0.00 92 1009.9
20260509181607 74 61 5.2 11.3 0.00 0.25 0.00 93 1010.0
20260509180049 76 49 5.2 8.7 0.00 0.25 0.00 93 1009.8
20260509174548 77 53 2.6 7.8 0.00 0.70 0.00 93 1010.0
20260509173059 78 73 1.7 6.1 0.00 0.70 0.00 94 1010.1
20260509171546 78 63 1.7 5.2 0.00 0.70 0.00 94 1010.4
20260509170044 77 66 3.5 6.1 0.00 0.70 0.00 96 1010.1
20260509164543 77 61 2.6 6.1 0.00 0.82 0.00 97 1010.4
20260509163043 78 78 0.0 2.6 0.00 0.82 0.00 99 1010.7
20260509161506 77 136 1.7 3.5 0.00 0.82 0.00 100 1010.7
20260509160050 77 122 0.0 3.5 0.00 0.82 0.00 100 1010.8
20260509154527 75 72 0.0 3.5 0.00 0.89 0.00 100 1010.7
20260509153018 75 110 0.0 2.6 0.00 0.89 0.00 100 1010.3
20260509151613 74 59 0.0 0.0 0.00 0.89 0.00 100 1010.2
20260509150042 74 110 0.0 1.7 0.00 0.89 0.00 100 1010.6
20260509144601 74 115 0.0 3.5 0.00 1.01 0.00 100 1010.3
20260509144526 74 70 0.0 4.3 0.00 1.01 0.00 100 1010.3
20260509143028 73 20 0.9 4.3 0.00 1.01 0.00 100 1010.1
20260509141530 73 76 1.7 3.5 0.00 1.01 0.00 100 1010.2
20260509140022 73 65 1.7 4.3 0.00 1.01 0.00 100 1010.1
20260509134537 73 64 0.9 2.6 0.00 1.03 0.00 100 1010.0
20260509133021 73 27 1.7 4.3 0.00 1.03 0.00 100 1010.3
20260509131517 73 39 0.9 3.5 0.00 1.03 0.00 100 1010.5
20260509130015 73 69 0.9 3.5 0.00 1.03 0.00 100 1010.4
20260509124510 73 53 0.0 1.7 0.00 1.03 0.00 100 1010.1
20260509123007 73 72 0.0 2.6 0.00 1.03 0.00 100 1010.0
20260509121505 73 117 0.0 0.0 0.00 1.03 0.00 100 1009.8
20260509120114 73 117 0.0 0.0 0.00 1.03 0.00 100 1010.0
20260509114600 72 124 0.0 0.0 0.00 1.03 0.00 100 1009.8
20260509113050 72 120 0.0 0.0 0.00 1.03 0.00 100 1009.9
20260509111558 72 120 0.0 0.0 0.00 1.03 0.00 100 1009.9
20260509111502 72 120 0.0 0.0 0.00 1.03 0.00 100 1009.9
20260509110043 72 120 0.0 0.0 0.00 1.03 0.00 100 1009.7
20260509110008 72 120 0.0 0.0 0.00 1.03 0.00 100 1009.7
20260509104506 72 120 0.0 0.0 0.00 1.03 0.00 100 1009.3
20260509103112 72 120 0.0 0.0 0.00 1.03 0.00 100 1009.3
20260509101509 71 120 0.0 0.0 0.00 1.03 0.00 100 1009.0
20260509100059 71 120 0.0 0.0 0.00 1.03 0.00 100 1008.6
20260509100010 71 120 0.0 0.0 0.00 1.03 0.00 100 1008.5
20260509094526 71 120 0.0 0.0 0.00 1.03 0.00 100 1008.4
20260509093010 71 102 0.0 0.0 0.00 1.03 0.00 100 1008.7
20260509091544 70 91 0.0 0.0 0.00 1.03 0.00 100 1008.6
20260509090050 70 91 0.0 0.0 0.00 1.03 0.00 100 1008.6
20260509090012 70 91 0.0 0.0 0.00 1.03 0.00 100 1008.6
20260509083007 70 91 0.0 0.0 0.00 1.03 0.00 100 1009.2
20260509081542 70 91 0.0 0.0 0.00 1.03 0.00 100 1009.2
20260509080038 69 84 0.0 0.0 0.00 1.03 0.00 100 1009.1
20260509074545 70 84 0.0 0.0 0.00 1.03 0.00 100 1009.1
20260509073144 70 113 0.0 0.0 0.00 1.03 0.00 100 1009.0
20260509071542 70 113 0.0 0.0 0.00 1.03 0.00 100 1009.1
20260509070013 70 130 0.0 0.0 0.00 1.03 0.00 100 1009.3
20260509064501 70 123 1.7 3.5 0.00 1.03 0.00 100 1009.5
20260509063030 69 117 0.0 3.5 0.00 1.03 0.00 100 1009.7
20260509061525 69 116 0.0 1.7 0.00 1.03 0.00 100 1010.0
20260509060024 69 117 0.0 0.0 0.00 1.03 0.00 100 1010.2